Find Yaogan 31 hao 03 zu 01 xing

NORAD ID: 47691 Int'l Des: 2021-014 Owner: ZLZB Country: CN Constellation: yaogan operational
LEO

Live Position

Loading 3D Globe...

About Yaogan 31 hao 03 zu 01 xing

Description loading...

Upcoming Passes

Passes for default location (London). Set your location on the main map for personalized predictions.

Altitude History

Loading altitude history...

Two-Line Element Set

1 47691U 21014A 26105.58459802 -.00000091 00000-0 -10569-5 0 9998
2 47691 63.4072 358.7329 0171775 0.4439 359.6709 13.45445545252352
Epoch: Apr 15, 2026 • Age: 7 hours

Current Status

Altitude 1100.4 km
Velocity 7.31 km/s
Sub-Earth Point -63.14°S, 123.17°E
Launch Date Feb 24, 2021
Age 5.1 years
Type military

Technical Details

Classification Payload
Mass 500.00 kg
Dry Mass 500.00 kg
Total Mass 500.00 kg
Length 0.50 m
Diameter 0.50 m
Span 1.00 m
Shape Box + 2 Pan
Manufacturer DFHZ
Bus Type JB-8B
Phase Status In Orbit
Owner/State ZLZB/CN

Most Searched